Probability
0 0 0 0 0 0 0 0 0 0 0 0 0 0 0 0 0 0 0 0 0 0 0 0 1 2 3 3 3 3 1 0 0 0 0 0 0 0 0 0 0 0 0
0 0 0 0 0 0 0 0 0 0 0 0 0 0 0 0 0 0 0 0 0 0 0 0 1 2 3 4 4 4 3 1 0 0 0 0 0 0 0 0 0 0 0
0 0 0 0 0 0 0 0 0 0 0 0 0 0 0 0 0 0 0 0 0 0 1 1 2 2 3 4 5 5 4 2 1 0 0 0 0 0 0 0 0 0 0
0 0 0 0 0 0 0 0 0 0 0 0 0 0 0 0 0 0 0 0 0 0 1 2 3 2 2 3 3 3 3 3 2 1 0 0 0 0 0 0 0 0 0
0 0 0 0 0 0 0 0 0 0 0 0 0 0 0 0 0 0 0 0 0 0 1 2 2 3 3 3 3 2 2 3 3 2 0 0 0 0 0 0 0 0 0
0 0 0 0 0 0 0 0 0 0 0 0 0 0 0 0 0 0 0 0 0 0 0 1 1 2 3 3 3 2 1 2 2 1 0 0 0 0 0 0 0 0 0
0 0 0 0 0 0 0 0 0 0 0 0 0 0 0 0 0 0 0 0 0 0 0 0 0 1 1 1 2 2 1 1 1 1 1 1 0 0 0 0 0 0 0
0 0 0 0 0 0 0 0 0 0 0 0 0 0 0 0 0 0 0 0 0 0 0 0 0 0 0 0 1 1 1 1 1 1 2 2 1 0 0 0 0 0 0
0 0 0 0 0 0 0 0 0 0 0 0 0 0 0 0 0 0 0 0 0 0 0 0 0 0 0 0 0 0 1 1 2 2 3 4 2 1 1 1 0 0 0
0 0 0 0 0 0 0 0 0 0 0 1 1 0 0 0 0 0 0 0 0 0 0 0 0 0 0 0 0 0 0 1 1 2 3 3 2 1 2 2 1 0 0
0 0 0 0 0 0 0 0 0 0 0 1 1 0 0 0 0 0 0 0 0 0 0 0 0 0 0 0 0 0 0 0 0 1 1 1 1 1 3 3 2 1 1
1 1 1 0 0 0 0 0 1 1 1 1 1 0 0 0 0 0 0 0 0 0 0 0 0 0 0 0 0 0 0 0 0 0 0 0 0 1 2 3 3 3 2
1 2 1 0 0 0 1 1 2 2 2 2 1 0 0 0 0 0 0 0 0 0 0 0 0 0 0 0 0 0 0 0 0 0 0 0 0 0 0 1 2 2 2
0 1 1 0 0 0 1 2 3 3 3 2 1 0 0 0 0 1 0 0 0 0 0 0 0 0 0 0 0 1 0 0 0 0 0 0 0 0 0 0 1 1 1
0 0 0 0 0 1 2 3 3 2 2 1 0 0 0 0 0 0 0 0 0 1 1 0 0 0 0 0 0 0 0 0 0 0 0 0 0 0 0 0 0 0 0
1 0 0 0 1 2 2 2 1 1 1 0 0 1 1 1 0 0 1 1 1 2 1 0 0 0 0 0 0 0 0 0 0 0 0 0 0 0 0 0 0 0 0
2 2 1 1 3 3 2 1 0 0 0 1 1 2 2 2 1 1 2 3 3 3 2 1 0 0 0 0 0 0 0 0 0 0 0 0 0 0 0 0 0 0 0
5 4 3 3 4 3 1 0 0 1 1 2 3 3 3 2 2 2 4 5 5 4 4 2 1 1 1 0 0 0 0 0 0 0 0 0 0 0 0 0 0 0 0
8 7 5 5 5 2 0 0 1 2 3 3 3 3 3 2 3 4 5 6 5 5 5 3 2 1 1 0 0 0 0 0 0 0 0 0 0 0 0 0 0 0 0
9 8 7 7 6 3 1 1 2 3 4 4 4 4 4 3 5 6 6 6 5 4 4 3 2 1 1 0 0 0 0 0 0 0 0 0 0 0 0 0 0 0 0
8 8 9 9 7 5 3 3 4 5 6 6 6 7 7 5 5 5 4 4 4 4 3 2 1 0 0 0 0 0 0 0 0 0 0 0 0 0 0 0 0 0 0
9 10 10 9 7 6 4 3 4 6 9 10 10 10 10 8 5 3 2 2 2 3 3 1 0 0 0 0 0 0 0 0 0 0 0 0 0 0 0 0 0 0 0
11 11 10 9 8 6 4 2 3 7 11 13 12 12 12 9 6 4 3 2 1 2 2 1 0 0 0 0 0 0 0 0 0 0 0 0 0 0 0 0 0 0 0
13 12 10 9 9 8 6 4 5 9 13 13 12 12 11 8 6 5 4 3 2 1 1 1 0 0 0 0 0 0 0 0 0 0 0 0 0 0 0 0 0 0 0
14 12 10 10 10 10 8 4 6 12 15 15 13 11 9 6 4 4 4 3 1 1 0 0 0 0 0 0 0 0 0 0 0 0 0 0 0 0 0 0 0 0 0
13 11 9 10 12 12 9 4 5 13 17 16 15 12 8 5 3 2 3 2 1 0 0 0 0 0 0 0 0 0 0 0 0 0 0 0 0 0 0 0 0 0 0
Wind_Speed
1 1 1 1 1 1 1 1 1 1 2 2 1 1 1 1 1 1 1 3 4 4 5 5 6 6 6 6 6 7 7 7 6 6 6 6 5 5 5 6 6 5 5
0 1 1 1 1 1 1 1 1 1 1 1 2 1 1 0 1 1 1 1 3 4 4 5 5 6 6 6 6 6 6 6 6 6 6 6 5 5 5 5 5 4 4
1 1 1 0 1 1 1 1 2 2 1 2 2 1 1 1 1 0 0 0 1 3 5 5 5 5 5 6 6 5 5 5 5 6 6 6 5 5 5 5 4 4 4
1 1 1 0 0 0 1 1 1 2 1 1 1 1 1 1 0 0 0 0 1 1 3 4 4 5 5 5 5 5 5 5 5 5 6 6 5 5 4 4 4 4 3
1 1 1 0 0 1 1 1 1 1 2 1 1 1 1 1 1 0 0 1 1 1 1 3 4 3 3 3 3 4 5 5 4 5 5 5 4 4 4 4 3 4 4
1 1 0 0 1 1 1 1 1 1 1 1 1 1 1 1 1 1 1 1 1 1 1 1 2 2 2 3 3 3 4 4 4 4 4 5 5 5 4 3 3 4 4
0 1 0 0 1 1 1 1 1 2 1 1 2 1 2 2 2 1 1 1 1 1 1 1 1 1 1 2 2 2 3 4 4 4 4 4 4 4 4 3 2 2 3
0 1 1 1 1 1 1 1 1 1 1 1 1 1 1 2 2 2 1 1 1 1 1 1 1 1 1 1 2 0 1 2 3 4 4 4 4 4 4 3 2 3 3
0 0 0 0 1 1 1 1 2 2 1 1 1 2 2 1 1 1 1 1 1 1 1 1 1 1 1 1 1 2 1 1 2 3 4 4 4 4 3 3 3 3 3
1 1 1 1 1 1 1 2 2 1 2 1 1 1 1 2 2 0 1 1 1 1 1 1 1 1 1 1 1 2 2 2 2 2 2 3 3 3 3 3 3 3 4
1 1 1 0 0 1 1 1 1 1 1 1 1 1 1 1 1 2 1 1 1 1 1 1 1 1 1 1 0 1 1 2 2 2 2 2 2 2 2 2 2 2 3
1 1 1 0 0 1 1 1 1 1 1 1 0 1 1 2 2 2 2 1 1 1 1 1 1 1 1 1 1 2 3 3 3 3 3 3 2 2 1 1 2 2 2
1 1 0 0 0 1 1 1 1 1 1 1 1 0 1 1 1 2 2 1 0 0 0 1 1 1 1 1 1 2 3 4 4 3 3 3 2 2 2 2 2 3 3
1 1 0 0 0 0 0 1 1 1 1 1 0 0 0 0 1 1 2 2 1 0 0 1 1 1 1 1 2 2 2 5 5 4 4 4 4 3 4 4 5 5 4
1 1 1 0 0 1 1 1 1 0 0 1 0 1 0 0 1 1 1 2 2 1 1 1 0 1 0 1 2 1 2 5 5 5 4 4 4 4 5 5 6 5 5
1 1 1 1 1 1 1 1 1 0 0 0 0 0 0 0 0 1 1 1 1 2 1 0 0 0 0 1 2 2 2 5 5 4 4 4 4 5 6 6 6 6 5
2 1 1 1 1 1 1 1 1 1 0 0 0 0 0 1 1 1 1 1 1 2 2 0 0 1 1 2 2 2 2 2 3 5 4 4 5 6 6 6 6 5 5
2 2 2 1 1 1 0 0 0 0 0 0 0 0 0 1 1 1 1 1 1 1 2 2 1 1 1 2 2 2 2 2 2 4 4 5 6 6 6 5 5 5 5
2 2 2 2 2 1 1 1 1 0 0 0 0 0 0 1 1 1 1 1 1 2 2 2 1 1 1 1 2 2 2 2 1 2 3 4 4 5 4 4 4 4 4
3 3 2 2 2 2 1 1 1 1 0 0 0 0 1 1 1 1 1 1 2 2 2 2 2 1 1 1 2 1 1 1 1 1 1 1 2 3 3 3 3 3 3
4 3 2 2 2 2 2 2 2 1 1 0 0 1 1 1 1 1 1 2 3 2 2 2 2 1 1 1 1 1 1 1 0 0 0 0 0 0 1 1 2 2 2
3 3 3 3 2 2 3 4 3 2 2 2 1 1 1 0 0 1 2 3 4 4 4 3 2 2 3 2 2 2 2 1 1 1 1 1 1 1 1 2 2 3 3
3 3 3 3 3 4 4 4 4 3 2 2 2 1 0 1 1 1 2 2 2 2 4 4 4 4 4 4 4 3 3 2 1 1 1 1 1 2 2 2 4 4 4
4 4 4 4 3 4 4 4 4 3 2 2 2 2 2 1 1 2 2 1 1 0 1 2 3 3 3 4 4 4 4 2 1 0 1 1 1 2 2 2 4 5 6
4 4 3 4 4 4 4 4 4 2 2 2 2 2 2 2 2 3 3 2 0 1 1 2 1 1 2 4 4 4 4 3 1 1 2 1 1 1 2 2 2 5 6
4 4 3 3 4 4 4 5 5 3 3 2 1 1 2 3 3 4 4 3 2 2 1 1 1 1 1 3 5 5 4 3 2 2 2 2 1 1 1 1 1 2 3
Wind_Direction
49 38 17 21 25 50 61 50 55 63 62 61 82 118 147 179 201 202 228 221 220 224 230 225 218 215 206 199 201 205 211 215 218 211 212 217 220 215 214 211 211 211 209
82 53 26 6 2 37 61 66 63 65 63 63 61 75 89 130 154 183 212 257 244 234 238 239 233 220 214 210 211 211 218 222 225 217 216 220 218 214 217 220 217 210 211
163 144 103 16 335 34 72 71 69 76 74 71 59 50 55 59 94 138 191 260 274 257 250 248 245 235 227 222 219 217 221 231 232 226 219 216 219 215 213 218 210 198 206
185 169 175 218 253 85 91 97 91 88 80 77 57 19 31 37 39 205 200 258 273 283 278 271 259 248 245 235 226 216 219 227 234 231 221 208 208 205 200 205 199 189 192
194 181 184 156 104 119 111 124 104 126 126 113 95 42 24 13 333 324 277 265 260 280 288 305 283 267 260 253 240 225 215 211 213 212 207 202 200 190 185 194 199 198 198
185 152 159 60 99 109 81 98 125 120 130 126 92 53 24 354 6 351 310 337 330 303 307 312 309 304 285 277 267 243 222 213 210 203 201 199 190 179 181 185 197 207 205
134 141 165 130 132 134 158 142 133 121 110 121 94 47 18 35 48 28 17 18 356 334 357 352 334 326 324 317 286 255 236 213 203 193 187 183 173 167 169 180 172 169 182
138 160 172 198 162 139 127 126 137 128 146 149 134 113 10 5 18 30 44 50 0 2 6 11 10 9 351 349 21 43 205 207 197 190 179 166 159 156 159 158 156 161 159
337 287 226 188 170 166 185 186 167 163 189 214 173 159 160 214 318 354 24 26 21 19 359 15 35 18 17 5 360 22 60 82 167 179 167 151 145 148 153 159 155 142 150
334 292 251 217 204 187 199 216 186 188 177 205 222 210 182 165 171 268 2 20 28 18 2 18 13 7 1 1 23 52 52 65 90 120 142 145 148 149 153 155 146 131 128
334 322 303 241 237 224 224 230 193 184 190 196 198 179 165 171 176 181 240 317 8 13 13 8 4 1 359 355 327 63 68 79 94 101 119 132 125 125 147 150 135 126 130
329 329 306 293 231 224 230 226 197 185 198 197 195 175 180 186 187 181 200 227 297 344 19 24 14 357 10 8 47 76 82 84 100 108 107 107 113 106 107 126 141 128 121
298 297 299 250 246 231 213 189 158 177 186 176 193 218 214 233 176 162 165 182 217 319 5 25 9 356 18 18 28 83 80 88 95 104 104 102 103 115 90 77 95 107 111
229 248 189 183 2 64 129 143 135 189 150 171 225 226 222 254 172 160 162 161 178 232 13 291 359 359 13 24 50 74 85 93 92 95 95 97 92 92 94 92 89 86 88
201 169 132 101 39 57 66 104 97 192 157 183 230 232 227 239 163 157 160 172 170 194 249 261 287 339 15 69 67 72 88 91 93 94 95 102 104 91 89 90 88 83 81
181 136 119 96 40 35 50 86 78 9 138 261 216 209 278 30 120 123 159 175 180 173 176 184 223 347 45 90 85 81 89 95 87 89 95 104 109 102 96 90 85 80 78
177 167 171 152 111 32 45 83 68 55 94 22 11 110 34 87 105 107 116 120 130 143 152 152 79 77 92 98 86 83 81 77 77 81 84 93 98 98 94 88 82 81 77
185 181 171 158 167 159 119 134 164 59 117 68 347 57 22 77 81 107 121 126 133 138 153 156 122 94 104 133 114 105 90 87 77 84 85 86 88 92 91 90 88 80 76
187 179 172 181 199 198 191 196 189 209 186 216 240 203 286 100 83 113 136 138 135 124 129 142 132 96 79 112 104 94 80 61 85 98 99 91 93 98 100 96 92 87 80
185 194 199 205 204 200 199 199 177 179 187 240 279 249 229 187 196 178 150 148 135 124 122 127 124 111 93 99 117 119 98 61 66 81 89 99 111 116 115 112 111 105 96
193 198 198 205 204 195 201 196 197 191 189 185 2 307 264 181 172 189 168 163 151 146 143 144 144 136 149 149 169 168 159 124 19 187 121 211 193 172 167 182 173 149 137
191 190 203 209 218 226 210 196 189 194 185 184 215 297 311 340 115 112 143 163 170 170 173 170 178 187 200 191 163 163 150 147 225 194 195 274 221 243 245 225 207 192 186
199 202 214 216 228 238 221 205 196 190 195 203 207 227 279 48 97 107 99 102 125 151 172 173 184 204 196 195 176 173 178 185 216 182 172 271 276 270 255 232 218 213 210
202 212 216 221 230 245 226 208 198 190 197 213 215 210 205 212 160 136 123 104 87 123 185 181 198 211 202 187 187 182 174 154 94 132 182 232 270 274 278 251 233 225 221
208 214 213 212 224 249 234 208 189 182 195 226 235 220 202 196 182 150 140 141 123 322 53 118 143 156 160 164 162 143 145 156 201 224 187 214 242 271 276 262 248 236 230
208 206 216 216 218 239 240 218 193 190 200 216 226 224 205 194 185 169 165 166 195 233 189 102 76 90 157 164 166 175 176 176 181 209 186 195 201 214 270 255 253 243 232